logo tempoitalia

Diretta Meteo Dax, Francialunedì 31 agosto ore 07:00

Mappa
Sereno 16 °C Sereno 24 Ore: T.min 16 T.max 28
Ponente Nord Km/h 3.7 Punto di rugiada: 16 °C Umidità: 100% Visibilità: 10 Km
Il sole sorge alle: 07:26 Il sole tramonta alle: 20:42
31 Agosto 2026 07:00 tempo osservato: Sereno Sereno 16 100 1021 vento: Nord N 3.7
31 Agosto 2026 06:30 tempo osservato: Sereno Sereno 16 100 1021 vento: Nord N 3.7
31 Agosto 2026 06:00 tempo osservato: Sereno Sereno 17 93 1021 vento: Nord N 3.7
31 Agosto 2026 05:30 tempo osservato: Sereno Sereno 17 93 1021 vento: Nord N 3.7
31 Agosto 2026 05:00 tempo osservato: Sereno Sereno 17 93 1021 vento: Nord N 3.7
31 Agosto 2026 04:30 tempo osservato: Sereno Sereno 18 88 1021 vento: Nord N 1.8
31 Agosto 2026 04:00 tempo osservato: Sereno Sereno 18 88 1021 vento: Nord N 3.7
31 Agosto 2026 03:30 tempo osservato: Sereno Sereno 19 82 1021 vento: Nord N 5.5
31 Agosto 2026 03:00 tempo osservato: Sereno Sereno 19 88 1021 vento: Nord N 5.5
31 Agosto 2026 02:30 tempo osservato: Sereno Sereno 19 88 1021 vento: Nord S/SO 7.4
31 Agosto 2026 02:00 tempo osservato: Sereno Sereno 20 82 1021 vento: Nord N 5.5
31 Agosto 2026 01:30 tempo osservato: Sereno Sereno 20 82 1021 vento: Nord S/SO 9.3
31 Agosto 2026 01:00 tempo osservato: Sereno Sereno 20 88 1021 vento: Nord S/SO 7.4
31 Agosto 2026 00:30 tempo osservato: Sereno Sereno 20 88 1021 vento: Nord S 9.3
31 Agosto 2026 00:00 tempo osservato: Sereno Sereno 21 77 1021 vento: Nord S/SO 7.4
30 Agosto 2026 23:30 tempo osservato: Sereno Sereno 21 73 1021 vento: Nord SO 7.4
30 Agosto 2026 23:00 tempo osservato: Sereno Sereno 21 73 1020 vento: Nord SO 7.4
30 Agosto 2026 22:30 tempo osservato: Sereno Sereno 21 73 1020 vento: Nord N 5.5
30 Agosto 2026 22:00 tempo osservato: Sereno Sereno 21 73 1020 vento: Nord N 5.5
30 Agosto 2026 21:30 tempo osservato: Sereno Sereno 21 77 1020 vento: Nord N 5.5
30 Agosto 2026 21:00 tempo osservato: Sereno Sereno 21 73 1019 vento: Nord O 7.4
30 Agosto 2026 20:30 tempo osservato: Sereno Sereno 22 68 1019 vento: Nord O/NO 9.3
30 Agosto 2026 20:00 tempo osservato: Sereno Sereno 22 68 1019 vento: Nord NO 9.3
30 Agosto 2026 19:30 tempo osservato: Sereno Sereno 22 73 1018 vento: Nord NO 11.1
30 Agosto 2026 19:00 tempo osservato: Sereno Sereno 22 73 1018 vento: Nord NO 13
30 Agosto 2026 18:30 tempo osservato: Sereno Sereno 23 68 1018 vento: Nord NO 13
30 Agosto 2026 18:00 tempo osservato: Sereno Sereno 23 68 1018 vento: Nord O/NO 9.3
30 Agosto 2026 17:30 tempo osservato: Sereno Sereno 23 73 1018 vento: Nord NO 14.8
30 Agosto 2026 17:00 tempo osservato: Sereno Sereno 24 69 1017 vento: Nord NO 14.8
30 Agosto 2026 16:30 tempo osservato: Sereno Sereno 25 65 1017 vento: Nord O/NO 16.7
30 Agosto 2026 16:00 tempo osservato: Sereno Sereno 27 57 1016 vento: Nord NO 18.5
30 Agosto 2026 15:30 tempo osservato: Sereno Sereno 28 51 1016 vento: Nord O 18.5
30 Agosto 2026 15:00 tempo osservato: Sereno Sereno 28 54 1016 vento: Nord O/NO 13
30 Agosto 2026 14:30 tempo osservato: Sereno Sereno 28 51 1016 vento: Nord N 7.4
30 Agosto 2026 14:00 tempo osservato: Sereno Sereno 28 54 1016 vento: Nord O 7.4
30 Agosto 2026 13:30 tempo osservato: Sereno Sereno 28 54 1016 vento: Nord N 5.5
30 Agosto 2026 13:00 tempo osservato: Sereno Sereno 27 57 1016 vento: Nord NO 9.3
30 Agosto 2026 12:30 tempo osservato: Sereno Sereno 27 57 1017 vento: Nord N 5.5
30 Agosto 2026 12:00 tempo osservato: Sereno Sereno 25 61 1017 vento: Nord N 5.5
30 Agosto 2026 11:30 tempo osservato: Sereno Sereno 25 65 1017 vento: Nord E/NE 9.3
30 Agosto 2026 11:00 tempo osservato: Sereno Sereno 25 65 1017 vento: Nord E 7.4
30 Agosto 2026 10:30 tempo osservato: Sereno Sereno 24 69 1017 vento: Nord SE 7.4
30 Agosto 2026 10:00 tempo osservato: Sereno Sereno 23 73 1017 vento: Nord N 5.5
30 Agosto 2026 09:30 tempo osservato: Sereno Sereno 22 78 1017 vento: Nord N 3.7
30 Agosto 2026 09:00 tempo osservato: Sereno Sereno 21 82 1017 vento: Nord N 5.5
30 Agosto 2026 08:30 tempo osservato: Sereno Sereno 20 82 1017 vento: Nord S/SE 7.4
30 Agosto 2026 08:00 tempo osservato: Sereno Sereno 20 82 1017 vento: Nord S/SE 7.4